Theta_e
276 276 276 276 276 276 277 277 277 277 277 277 277 277 276 276 276 276 276 276 276 276 276 277 277 277 277 277 277 277 277 277 277 277 277 278 279 279 279 279 281 283 285 287 289 291 291 292 293 293 293 293 294 295 296 298 300 301 303 305 308 310 312 314 316 316 317 318 318 318 319 317 315 315
275 275 275 276 276 276 276 276 276 276 276 276 276 276 276 276 276 276 275 275 275 275 275 276 276 276 277 276 276 276 277 277 277 277 277 277 278 278 278 278 279 281 283 285 287 289 291 291 292 292 292 292 293 294 294 296 298 300 301 303 305 306 308 310 313 315 316 317 318 318 319 319 317 316
274 274 274 274 275 275 275 275 275 275 275 275 275 275 275 275 275 275 275 275 275 275 275 275 276 276 276 276 276 276 276 276 276 276 276 276 276 277 278 278 278 280 281 283 285 288 290 291 291 292 292 291 292 294 294 295 297 299 300 301 302 304 306 307 309 312 315 316 316 317 318 319 318 317
273 273 273 273 274 274 274 274 274 274 274 274 275 275 275 274 275 274 274 274 274 274 275 275 275 275 276 275 276 276 276 276 276 276 276 276 276 277 278 278 278 279 280 281 283 285 288 290 291 291 291 291 291 293 294 294 296 298 299 299 300 301 303 305 306 307 310 312 314 315 316 317 318 318
273 272 272 273 273 273 273 273 273 273 273 273 273 274 273 274 274 274 274 274 274 274 274 274 274 274 275 275 275 275 275 275 275 275 275 275 276 276 277 277 278 278 279 280 281 283 286 288 290 291 291 291 290 292 294 294 295 296 297 298 299 300 301 303 305 305 306 308 309 311 313 315 316 317
272 272 272 272 272 272 272 273 273 273 273 273 273 273 273 273 273 273 273 274 274 274 273 274 274 273 274 274 275 275 274 274 274 274 274 275 275 276 276 277 278 278 278 279 280 281 283 286 289 290 291 291 290 290 293 294 294 295 295 296 298 299 300 301 303 304 304 305 306 307 309 312 313 314
272 272 271 272 272 272 272 272 272 272 272 272 273 273 273 273 273 273 273 273 273 273 273 273 273 273 273 273 274 274 274 274 274 274 274 275 275 275 276 277 277 278 277 278 279 280 282 284 286 289 290 291 290 290 290 293 294 295 295 295 297 298 298 299 301 302 303 303 304 304 305 307 309 311
271 271 271 271 271 272 272 272 272 272 272 272 272 272 273 273 273 273 272 272 273 273 273 273 273 273 273 273 273 274 274 274 274 274 274 274 274 275 275 276 277 277 277 277 278 279 280 282 284 286 289 290 290 290 289 290 293 295 295 295 296 297 297 298 299 300 302 302 303 303 304 305 306 307
271 271 271 271 271 271 271 272 273 273 273 273 272 272 272 273 273 273 272 272 272 272 272 272 272 272 272 273 273 273 274 274 274 274 274 274 274 274 275 275 276 277 277 277 277 278 279 280 281 284 286 289 290 290 288 288 291 294 295 295 295 297 297 297 297 298 299 301 302 303 304 304 304 304
271 271 271 271 272 272 272 273 274 274 274 274 274 273 273 272 272 272 272 272 272 272 272 272 272 272 272 273 273 273 273 273 273 274 274 275 274 274 274 275 276 276 276 277 277 278 279 279 280 281 283 286 288 290 289 287 288 291 294 295 295 296 296 296 296 296 297 298 300 301 302 303 303 303
271 271 271 271 272 272 273 273 274 274 275 275 275 275 274 273 273 272 272 272 272 272 272 272 272 272 272 273 273 273 273 272 273 273 273 274 274 274 274 275 275 275 276 277 278 278 278 279 279 280 281 283 286 288 289 288 287 288 291 293 294 295 296 296 296 296 296 296 297 298 299 300 301 302
271 271 271 271 272 273 273 274 274 275 275 275 275 275 275 274 274 273 273 272 272 272 272 272 272 272 272 272 273 273 272 272 272 273 273 273 274 274 274 275 275 275 276 276 277 277 278 278 279 279 280 281 283 285 288 289 288 287 287 289 292 294 295 296 296 295 296 296 295 295 296 297 298 300
271 271 272 272 272 273 273 274 275 275 275 275 275 275 275 274 274 274 273 273 273 272 272 273 272 272 272 273 272 272 272 272 272 272 273 273 273 274 274 274 275 275 275 276 276 277 278 278 278 279 279 280 281 282 285 288 289 288 287 287 289 292 294 295 295 295 295 296 296 295 294 295 295 297
271 272 272 273 273 273 274 274 275 275 275 275 275 275 274 274 274 274 274 273 273 273 273 273 273 272 273 273 272 272 272 272 272 272 272 272 273 273 273 274 275 275 275 275 276 277 278 278 279 279 279 280 280 281 282 285 288 289 288 287 287 289 291 294 295 295 295 295 295 296 295 295 295 295
271 272 273 273 273 274 274 274 275 275 275 275 275 274 274 274 274 274 274 274 273 273 274 274 273 272 273 273 272 272 272 272 272 272 271 271 272 272 273 274 275 275 275 275 276 277 278 278 279 279 279 280 280 280 281 283 285 288 288 288 287 287 289 291 293 294 295 295 294 295 295 295 295 295
272 272 273 273 274 274 275 275 275 275 275 275 275 274 274 274 274 274 274 274 274 273 274 274 274 273 273 273 273 272 272 272 272 272 272 271 272 272 272 273 274 275 275 275 276 277 278 278 279 279 279 279 280 280 280 281 283 285 287 288 287 287 287 288 290 291 293 295 294 294 294 295 295 295
272 273 273 273 274 274 275 275 275 275 275 275 274 274 274 273 273 273 273 273 273 274 274 274 274 273 273 273 273 272 272 272 272 272 272 272 272 272 272 272 274 274 274 275 275 276 277 278 278 278 279 279 280 281 281 281 281 282 284 286 287 287 287 287 287 288 290 292 294 293 293 293 294 294
272 273 273 273 274 275 275 275 275 275 275 275 274 274 274 273 273 272 272 272 272 273 274 274 274 273 273 273 273 273 272 272 272 272 272 272 272 272 272 272 274 274 274 275 276 277 278 278 278 278 279 280 281 282 281 281 282 282 282 283 285 287 287 286 286 287 287 289 291 292 292 292 292 293
271 272 273 273 274 275 275 276 276 275 275 274 274 274 274 274 273 273 272 272 272 272 273 274 275 274 273 273 273 273 272 272 272 272 272 272 272 273 273 273 274 274 275 276 277 277 278 279 279 279 279 280 281 282 282 282 282 283 283 283 284 285 286 286 286 286 286 287 288 289 290 291 291 291
271 271 272 273 274 275 275 276 276 275 275 274 274 273 274 274 274 273 273 273 273 273 274 274 275 274 274 273 273 273 273 273 273 272 272 272 272 273 273 273 274 275 276 277 277 277 278 278 279 279 279 280 280 281 282 281 281 282 283 283 283 283 284 286 286 286 286 286 286 287 288 289 290 290
270 271 272 273 274 275 275 276 276 275 275 274 274 273 273 274 274 274 274 274 274 274 274 274 274 274 274 273 273 273 273 273 273 273 272 273 273 273 273 274 275 276 277 277 277 278 278 279 279 279 279 279 280 280 281 281 281 281 282 282 283 283 283 284 285 286 286 286 286 286 286 287 288 289
270 271 272 273 274 275 275 276 276 275 275 275 274 274 274 275 275 275 275 275 274 274 274 274 274 274 274 274 274 274 274 274 274 274 273 273 274 273 274 274 275 276 277 277 278 278 278 279 279 280 280 280 280 280 280 281 281 282 282 282 282 282 282 283 284 284 285 285 285 285 286 286 286 287
270 270 272 273 274 275 275 276 275 275 275 275 275 276 275 276 276 276 275 275 275 275 275 275 275 275 275 275 275 275 275 275 275 275 274 274 274 274 274 274 275 276 277 278 278 278 279 279 279 280 280 280 280 281 281 281 282 282 282 282 282 282 282 282 283 283 284 284 285 285 285 285 286 286
270 270 271 272 273 274 275 275 275 275 276 276 276 276 276 276 276 276 275 275 275 275 275 276 276 275 275 275 275 275 275 275 275 275 275 275 274 274 274 274 275 276 277 278 278 278 278 279 279 280 280 280 281 281 282 282 283 282 282 282 282 283 283 282 282 283 283 283 284 284 285 285 285 286
271 270 270 271 273 274 274 275 275 276 277 277 276 276 277 277 276 276 276 276 276 276 276 276 276 276 275 275 275 275 275 275 275 275 275 275 275 274 275 275 275 276 277 277 278 278 278 278 279 279 280 280 281 281 282 283 283 283 283 283 282 283 283 283 282 282 282 283 283 283 284 285 285 285
271 270 270 271 272 273 274 275 275 276 277 277 277 277 277 277 276 276 276 276 276 276 276 276 276 276 276 276 276 276 276 276 276 275 275 275 275 275 275 275 276 277 277 277 277 278 278 278 279 279 280 280 281 281 282 283 283 284 284 283 283 283 283 283 283 283 282 282 283 283 283 284 284 284
270 270 270 271 272 273 274 275 276 277 277 277 277 277 277 277 276 276 277 277 277 277 276 276 276 276 276 276 276 276 276 276 276 276 276 276 276 276 276 276 276 277 277 277 277 278 278 278 279 279 279 280 280 281 281 282 283 284 284 284 284 283 283 283 283 283 283 283 282 283 283 283 283 284
270 270 270 271 272 273 274 275 276 277 277 278 278 278 277 277 277 277 277 277 277 277 276 276 276 276 276 276 276 276 276 276 276 277 277 277 276 276 276 276 276 277 277 277 278 278 278 278 279 279 279 280 280 280 281 282 283 283 284 284 284 283 283 283 283 283 283 283 283 283 283 283 283 283
270 270 270 271 273 274 274 275 276 277 278 278 278 278 278 277 277 277 277 277 277 277 277 277 277 276 276 276 276 276 276 276 276 277 277 277 276 276 276 277 277 277 277 277 278 278 278 278 278 279 279 280 280 280 281 281 282 283 283 284 284 284 284 284 283 283 283 283 284 284 284 284 284 284
270 270 271 272 273 274 275 276 276 276 277 278 278 278 278 277 277 277 277 277 277 277 277 277 276 276 277 277 277 276 276 276 276 276 276 276 276 276 276 277 277 277 277 277 278 278 278 278 278 279 279 280 280 280 280 281 282 282 283 283 283 283 284 284 284 283 283 283 283 284 284 285 285 285
270 270 270 271 273 274 274 275 276 276 277 278 278 278 278 277 277 277 277 277 277 277 277 276 276 276 276 277 277 277 277 277 277 277 276 276 276 276 276 276 277 277 278 278 278 278 278 278 279 279 279 280 280 280 280 280 281 282 282 283 283 283 283 284 284 284 284 283 283 283 283 284 284 284
270 270 270 270 272 273 274 275 276 277 277 277 278 278 278 277 277 277 277 277 276 277 277 276 276 276 276 277 278 278 278 278 278 278 277 277 277 276 276 277 277 277 278 278 278 278 279 279 279 279 279 280 280 280 280 280 281 281 281 282 283 283 283 283 284 284 284 284 284 283 283 283 283 284
270 271 270 270 271 273 274 275 275 276 277 277 277 278 277 277 277 277 276 276 276 276 276 276 276 275 275 276 277 277 278 278 278 278 278 278 278 277 277 277 277 277 278 278 279 279 279 279 279 279 279 280 280 280 280 280 281 281 281 281 282 282 283 283 283 284 284 284 284 284 284 284 284 284
270 270 271 271 271 272 274 275 275 276 277 277 277 277 277 277 277 277 276 276 276 276 275 275 275 275 275 275 276 277 277 277 278 278 278 278 278 278 278 278 278 278 278 278 278 278 279 279 279 279 279 279 280 280 280 280 281 281 281 281 281 282 283 283 282 282 283 283 283 284 284 284 284 284
269 270 271 271 271 272 273 274 275 275 276 277 277 277 277 277 277 276 276 276 275 275 275 275 275 275 275 275 275 276 276 276 277 277 278 278 278 278 279 279 279 279 279 279 278 278 278 278 278 279 279 279 279 280 280 280 280 280 281 281 281 281 282 283 283 282 282 282 283 283 283 283 284 284
269 269 270 271 272 272 273 274 275 275 276 276 277 277 276 276 276 276 276 275 275 275 275 275 275 275 275 275 275 275 275 275 276 276 276 277 277 278 278 278 279 279 279 278 278 278 278 278 278 278 278 279 279 279 280 280 280 280 280 281 281 281 281 282 283 282 281 282 282 283 282 282 283 283
268 269 269 271 272 272 273 273 274 275 275 276 276 276 276 276 276 275 275 275 275 275 275 275 275 275 275 275 275 275 275 275 275 275 275 276 276 277 277 278 278 278 278 278 278 278 279 278 278 278 278 278 278 279 280 280 280 280 280 280 281 281 281 281 282 282 281 281 282 282 282 282 282 282
267 268 269 270 271 273 274 274 274 274 275 276 276 276 276 276 275 274 274 274 274 274 274 274 274 274 274 274 274 274 274 274 275 275 275 275 275 276 277 278 278 278 278 278 278 279 279 279 279 278 278 278 278 279 279 280 280 280 280 280 280 281 280 280 281 281 281 281 281 282 282 282 282 282
267 268 269 270 271 272 273 274 274 274 275 275 276 276 275 275 274 274 274 274 274 274 274 274 274 274 274 274 274 274 274 274 274 274 275 275 275 275 276 277 278 278 278 278 278 279 279 279 279 279 279 279 279 279 279 280 280 280 280 280 280 280 280 280 281 281 280 280 281 281 281 282 282 281
268 268 268 270 271 272 273 274 275 275 275 275 275 275 275 274 274 274 274 274 274 274 273 273 274 274 274 274 274 274 274 274 274 274 275 275 275 275 275 276 277 278 278 278 278 279 279 279 279 279 279 279 279 279 279 279 280 280 280 280 281 280 280 280 281 281 281 280 281 281 281 282 282 281
268 268 268 269 271 272 273 274 274 275 275 275 275 275 274 274 274 274 274 274 274 273 273 273 273 273 273 273 274 274 274 274 274 275 275 275 275 276 276 276 276 277 278 278 279 279 279 279 279 279 279 279 279 279 279 279 280 280 280 280 281 280 280 280 280 281 281 280 280 281 281 282 282 281
269 269 268 269 270 272 272 273 273 274 274 274 274 274 274 274 274 274 274 274 273 273 273 273 273 273 273 273 274 274 274 275 275 275 275 275 275 276 276 276 277 277 278 278 278 278 278 278 278 279 279 279 279 279 279 279 280 280 280 280 280 280 280 280 280 280 280 280 280 281 282 281 281 281
270 269 269 269 270 271 272 272 273 273 273 273 273 273 273 273 273 273 273 273 273 273 273 273 273 273 273 273 274 274 274 275 275 275 275 275 275 276 276 277 277 277 278 278 278 277 277 278 278 279 279 279 280 279 279 279 280 280 280 280 280 280 280 280 280 280 280 280 280 281 281 281 281 281
270 269 269 270 270 270 271 271 272 272 273 273 273 273 273 273 273 273 273 273 273 273 273 273 273 273 273 273 274 274 275 275 275 275 275 275 275 276 276 277 277 277 277 277 277 277 277 277 278 279 279 280 280 280 280 280 280 280 280 280 280 280 280 280 280 280 279 279 280 280 281 281 281 281
270 270 270 270 271 271 271 272 272 272 273 273 273 273 273 273 273 273 273 273 273 272 272 272 273 273 273 273 274 274 274 275 275 275 275 276 276 276 276 276 276 276 277 278 278 277 277 278 279 279 280 280 280 280 280 280 280 280 280 280 280 280 280 281 281 281 280 280 280 280 281 281 281 281
Wind_Speed
31 29 29 31 31 31 30 31 31 30 28 26 24 23 23 22 23 24 24 24 24 21 17 15 15 12 9 11 13 13 14 16 16 17 20 21 19 17 16 16 16 16 18 20 20 20 18 16 15 14 13 13 13 9 6 3 6 15 17 12 12 15 16 19 25 29 29 29 30 29 28 31 35 32
33 33 32 31 31 31 30 30 30 30 29 27 26 26 25 24 24 24 25 27 26 22 18 17 17 16 15 16 17 18 19 20 22 23 25 26 26 24 21 18 16 16 17 19 20 20 18 17 15 13 12 11 11 10 7 7 4 6 13 14 12 11 12 16 20 25 28 29 31 31 29 30 32 32
32 34 34 33 33 32 31 30 29 29 28 26 25 25 25 24 25 25 25 29 29 24 20 19 19 19 20 21 22 24 25 24 25 27 28 28 28 27 23 18 16 16 16 17 19 20 19 17 16 14 12 11 10 8 6 7 8 5 5 10 13 10 8 12 16 19 24 27 29 29 28 31 33 32
31 32 33 34 34 33 32 30 30 30 29 28 28 27 27 27 28 28 27 31 33 28 25 25 24 24 24 24 24 25 26 25 24 25 25 25 25 25 23 19 16 15 15 16 17 19 19 18 17 16 14 12 10 7 5 6 8 7 5 3 7 10 7 7 10 14 18 21 24 24 24 30 34 32
32 32 32 33 33 33 33 33 32 31 30 29 28 28 28 29 29 29 29 31 33 30 27 26 26 24 22 22 20 19 21 21 21 22 22 22 22 22 22 20 16 14 14 15 16 17 18 19 19 17 16 14 11 8 7 6 6 8 6 4 4 5 8 7 7 9 11 15 18 19 19 26 31 30
32 33 33 33 33 32 33 34 34 33 31 29 28 27 28 29 29 28 28 28 28 27 23 20 19 19 18 19 19 18 19 20 20 21 21 22 22 21 20 19 16 14 13 14 15 16 17 19 20 19 17 16 13 10 9 8 5 7 8 5 6 6 5 7 9 9 9 10 13 16 17 21 25 23
31 33 34 34 34 33 33 33 33 33 32 30 29 28 27 27 27 25 23 24 24 24 22 19 17 18 18 18 18 17 18 20 20 21 22 22 22 21 20 19 17 15 13 13 14 14 15 17 20 20 19 18 16 13 11 10 7 7 8 5 4 7 7 8 9 11 11 10 11 10 12 18 21 19
31 32 33 34 34 34 33 33 32 32 32 32 31 30 28 27 26 23 21 22 22 22 23 21 19 18 18 18 18 17 18 19 20 22 23 23 22 21 20 18 16 14 13 13 13 13 14 15 18 21 21 20 19 17 15 13 10 9 9 9 8 7 7 7 10 11 13 13 12 10 10 12 15 16
30 31 32 32 31 32 32 31 29 27 27 28 29 30 30 29 28 26 23 23 22 22 24 24 22 20 20 21 20 18 18 18 19 19 20 19 19 18 17 15 13 13 13 12 12 12 13 14 15 19 23 23 22 21 20 17 15 13 12 12 12 10 8 7 8 9 13 16 16 15 15 11 9 10
30 30 30 29 28 28 29 28 25 23 23 24 25 27 28 30 31 29 27 24 23 23 23 24 23 23 22 21 20 18 16 16 18 18 19 17 16 16 16 13 12 13 13 13 12 12 12 13 14 16 20 24 25 24 23 22 19 17 15 15 15 14 12 9 7 7 8 11 15 16 17 16 14 13
30 29 29 28 27 26 26 25 23 22 22 22 23 23 24 27 30 32 31 28 26 25 25 24 24 24 23 21 20 17 13 13 15 16 18 17 14 13 13 13 12 13 14 13 12 12 13 13 14 15 18 22 25 26 26 25 23 21 19 18 17 16 15 13 9 7 6 7 9 11 12 14 15 16
30 29 29 28 27 26 25 24 22 22 22 21 22 22 22 23 25 28 30 31 30 29 28 27 26 26 24 22 20 16 12 12 13 12 13 14 14 13 12 12 13 14 13 12 11 11 12 13 13 14 15 19 23 26 28 27 26 24 22 21 19 17 16 15 13 10 8 7 7 8 8 9 11 14
31 30 29 29 28 27 25 24 22 21 20 20 19 18 18 19 20 22 25 27 28 27 27 27 26 25 24 21 19 16 12 12 12 10 11 14 14 14 15 15 12 11 11 10 9 8 8 11 12 13 14 16 19 23 27 28 28 26 24 23 22 20 16 16 16 15 12 10 8 8 8 8 8 10
31 30 29 29 27 26 26 24 22 20 20 20 18 16 16 16 16 17 19 21 23 24 25 24 23 23 22 19 16 14 11 9 10 10 10 13 13 13 16 15 8 6 7 9 9 7 6 10 13 13 15 15 16 20 23 27 28 28 27 25 23 23 21 18 17 17 16 15 12 10 10 9 8 8
32 30 29 28 27 26 26 25 23 22 22 20 18 17 17 16 16 16 17 17 18 20 22 22 22 22 21 17 14 12 10 7 7 6 6 7 9 10 13 12 5 2 6 9 11 9 6 10 14 14 15 15 14 16 19 23 27 28 28 27 25 24 24 22 20 19 18 19 18 15 13 12 11 10
31 30 29 28 27 26 26 25 25 25 24 21 19 18 17 17 17 17 18 18 18 18 19 19 20 20 19 16 12 9 6 5 5 5 5 6 7 7 9 10 7 5 7 11 13 11 7 9 14 15 15 15 14 15 16 18 23 26 28 28 28 27 26 25 24 23 21 21 21 20 18 16 15 14
30 30 29 28 28 27 26 26 26 26 24 22 19 18 18 18 18 18 18 18 18 17 17 18 18 17 14 11 7 4 4 4 5 7 7 8 9 8 9 11 9 6 7 10 13 12 8 8 13 15 14 13 13 14 14 14 17 22 25 27 28 28 28 27 27 26 25 24 23 24 23 21 19 17
30 29 29 28 28 28 28 27 27 27 25 22 20 18 19 20 20 20 20 19 19 18 18 17 16 12 11 10 7 5 7 8 9 10 11 11 12 11 11 11 8 4 4 6 10 11 7 6 11 15 13 11 11 12 13 13 12 15 20 25 27 29 29 28 28 28 28 27 26 25 25 24 23 21
29 29 28 28 29 29 29 29 28 27 26 24 22 21 22 23 23 23 22 21 21 21 19 18 14 11 10 11 10 9 10 11 12 12 13 12 12 11 11 9 5 2 1 1 5 7 6 6 9 12 11 11 11 11 12 13 12 12 14 19 23 28 30 30 30 30 29 29 28 27 27 26 25 24
28 28 29 29 29 30 30 29 28 27 26 24 23 23 24 25 25 24 21 18 17 17 16 15 12 8 6 6 7 8 10 10 9 9 10 9 9 9 9 7 3 2 3 2 1 5 5 5 8 9 9 12 13 13 13 14 14 14 14 16 20 24 28 29 30 29 29 29 28 28 28 27 27 26
29 29 30 30 30 31 31 30 28 27 26 23 22 22 23 23 24 22 18 15 14 14 13 12 12 10 8 6 6 10 13 13 12 12 12 9 7 9 9 5 3 3 4 4 1 4 5 4 7 10 9 11 14 15 14 13 13 13 13 14 16 19 22 25 28 29 29 29 29 28 28 28 28 28
31 30 31 30 31 32 32 30 28 26 24 22 21 21 21 21 21 19 16 14 13 12 13 15 16 18 18 16 14 15 16 15 15 18 16 11 9 12 10 6 4 3 4 4 2 1 5 7 7 10 11 10 11 12 14 13 12 12 13 13 14 14 16 20 25 28 30 30 30 30 29 29 29 29
30 30 31 31 32 32 32 31 27 24 24 24 20 18 19 20 20 18 15 14 13 12 11 12 14 16 18 19 19 20 19 17 17 19 18 15 14 14 11 8 6 5 6 7 4 0 3 6 7 9 12 13 11 10 11 13 13 13 14 15 14 13 14 16 21 25 29 30 31 31 30 30 29 30
28 28 28 30 31 32 32 30 26 24 25 26 22 18 18 18 15 13 13 13 12 11 10 9 10 11 12 13 16 18 19 19 19 20 21 20 19 17 13 11 10 8 8 8 4 2 4 6 6 8 11 14 15 13 11 12 13 13 14 14 14 13 13 14 18 22 26 29 31 32 31 31 30 30
33 30 29 29 29 31 32 30 27 24 24 25 23 19 16 12 8 9 11 11 11 11 11 10 10 12 12 13 14 14 15 16 17 19 22 22 21 20 16 13 12 10 6 6 2 5 6 7 7 8 10 12 15 16 14 12 10 12 13 12 12 12 12 13 15 19 23 26 28 31 32 32 31 31
35 34 31 30 30 31 31 31 28 26 25 25 24 18 13 10 9 10 10 10 11 10 10 10 11 12 13 14 15 15 15 15 14 15 18 21 20 18 14 12 13 10 5 4 4 5 7 8 8 10 12 13 14 16 15 13 9 8 12 11 10 11 12 11 11 14 19 22 25 28 30 32 33 32
35 33 31 29 28 29 30 31 30 27 25 26 25 19 14 13 11 10 10 10 10 10 9 10 11 12 13 14 15 16 16 15 13 12 13 15 17 17 14 13 14 12 8 6 7 8 10 11 10 10 12 14 15 15 14 14 12 6 8 10 9 9 9 10 10 11 14 18 21 23 26 29 31 32
35 33 31 27 25 26 28 29 31 29 26 26 25 21 17 15 13 12 13 13 14 12 11 11 10 10 11 11 11 12 13 12 12 12 11 11 13 14 15 14 14 14 12 11 11 10 12 13 11 10 11 13 14 14 13 13 12 7 3 8 9 7 5 6 9 9 9 12 15 17 20 23 26 28
33 32 29 26 24 24 25 26 29 30 28 27 26 23 20 18 16 15 15 17 18 17 14 13 12 12 12 12 11 10 9 9 10 11 12 12 12 13 14 15 15 15 14 14 13 12 13 14 12 10 11 11 12 13 12 11 9 7 2 3 5 6 6 6 6 6 7 8 10 12 14 16 18 20
30 28 26 25 25 24 24 25 27 29 30 29 28 25 23 21 20 19 18 18 20 19 17 15 14 13 13 14 14 13 11 9 10 10 11 12 12 13 13 14 16 17 16 16 15 14 15 15 13 11 11 12 12 12 11 8 6 5 4 2 1 2 4 7 7 6 6 7 9 11 14 14 15 16
27 27 26 26 26 24 24 25 27 28 29 29 29 28 26 25 23 21 19 18 19 19 18 17 15 14 13 13 14 15 14 11 10 10 10 12 14 14 13 13 15 16 17 17 17 16 16 16 13 12 12 12 13 12 10 9 8 6 4 3 3 4 1 5 8 9 8 7 6 7 10 13 15 16
26 25 25 27 28 27 26 27 28 29 30 30 30 30 29 27 25 23 20 19 19 20 19 19 17 15 16 16 14 14 15 15 14 13 13 13 13 14 14 15 16 16 16 17 17 17 17 16 15 14 13 13 13 13 12 11 11 8 4 3 3 4 4 1 4 8 9 9 8 7 7 7 9 10
30 25 23 25 29 31 30 29 29 29 30 30 30 30 29 28 26 25 23 22 21 21 21 20 18 16 16 19 18 16 15 14 14 15 17 17 15 14 15 17 18 17 17 16 16 16 16 15 16 16 15 14 14 14 14 14 12 10 8 6 5 4 3 2 2 4 5 7 9 10 10 9 8 8
36 31 26 25 27 32 34 30 28 29 30 29 29 29 29 29 28 26 25 23 21 19 20 20 18 15 14 16 20 21 20 18 16 15 16 17 17 17 19 20 21 20 19 17 18 17 15 14 14 15 15 16 16 15 15 15 13 11 10 8 6 6 4 4 5 6 4 2 4 8 10 11 12 11
39 36 32 26 24 30 36 32 26 27 28 28 28 29 29 29 29 27 26 24 21 19 20 20 18 14 12 12 14 17 19 20 21 21 19 18 17 17 17 19 20 20 19 19 20 19 17 14 14 14 15 16 18 18 17 16 15 13 12 11 9 8 8 6 6 7 6 4 5 7 8 8 9 10
39 38 35 30 24 26 34 34 27 24 26 27 28 31 31 30 29 28 26 24 22 21 20 19 15 12 11 11 11 12 13 15 18 20 23 23 22 20 19 18 18 18 18 20 21 20 17 15 15 16 15 15 18 20 20 18 16 15 15 15 13 11 10 9 7 8 8 6 7 8 7 6 6 7
36 37 36 34 27 23 28 34 30 25 25 27 28 29 31 31 29 27 24 22 21 20 18 15 13 11 11 11 11 11 12 14 14 15 17 20 22 22 22 21 21 21 21 22 21 19 19 19 18 17 17 16 18 21 21 18 17 16 16 17 16 13 12 11 10 12 12 9 9 8 6 6 5 5
32 35 33 33 31 26 23 29 32 29 26 29 30 29 30 30 27 24 21 19 18 17 15 13 13 13 13 12 13 12 13 13 14 14 13 14 17 20 21 20 19 19 20 20 20 20 21 22 21 19 18 18 19 20 19 18 19 18 16 17 16 14 13 13 14 16 15 11 10 9 8 7 6 5
27 33 32 29 31 30 23 23 30 33 30 29 30 30 29 28 25 22 19 17 15 15 14 14 15 15 14 14 14 14 14 14 14 15 14 14 15 18 20 20 19 19 19 20 21 20 21 23 23 22 20 19 19 17 15 16 18 17 15 15 15 14 15 17 18 17 15 12 11 11 11 9 8 8
22 29 34 30 27 29 27 23 26 33 33 31 29 28 27 26 24 21 18 16 15 15 15 16 16 16 17 16 15 15 15 14 14 15 16 16 16 17 18 19 19 19 19 20 21 20 20 21 21 20 19 18 17 15 13 13 15 15 13 13 13 14 16 19 19 18 17 14 11 13 14 13 11 11
21 23 32 34 28 24 25 24 23 27 30 30 28 27 26 24 22 20 18 16 16 16 16 16 17 18 18 17 16 15 15 15 14 13 14 16 17 17 17 17 17 18 18 19 19 19 19 18 17 17 16 16 15 14 14 16 18 17 14 12 13 14 17 19 17 16 17 15 13 14 16 14 13 13
21 18 25 33 31 24 21 22 22 23 25 25 25 25 24 23 23 22 19 18 18 16 15 15 17 18 18 17 16 15 15 14 13 12 12 13 14 15 16 16 17 17 18 19 20 19 18 17 16 16 17 17 17 17 17 18 19 18 15 13 12 13 16 19 19 17 16 16 14 15 16 15 15 15
21 18 19 28 31 27 22 21 22 23 23 23 23 23 23 23 23 23 21 20 18 15 14 15 16 17 17 17 16 15 15 14 14 14 13 13 13 14 14 15 17 18 18 19 21 22 21 19 17 17 18 19 19 18 17 17 19 20 17 14 12 12 14 17 20 20 19 16 14 14 15 16 17 18
24 20 18 23 28 28 26 25 24 23 23 23 22 21 20 21 21 20 20 19 17 14 13 14 15 15 15 15 15 15 15 15 15 16 16 16 15 15 15 16 17 18 18 17 17 18 19 18 16 16 18 20 20 19 17 16 18 19 17 14 13 14 14 14 17 21 22 19 15 14 14 15 16 16
25 23 21 23 25 26 27 27 25 24 22 20 19 18 18 19 19 19 19 18 15 14 14 14 14 14 14 14 15 15 15 15 15 15 16 16 15 15 15 16 17 18 18 14 11 11 13 14 14 15 16 17 19 19 17 16 17 18 17 15 14 14 14 14 15 18 19 19 17 16 15 15 15 14
Wind_Direction
236 235 234 233 235 236 234 231 231 233 235 238 241 245 248 254 264 272 277 277 277 280 280 279 282 282 281 282 275 265 266 275 281 286 290 294 302 306 302 295 282 269 264 262 262 265 270 277 284 289 291 299 307 303 290 306 62 68 66 75 106 124 142 165 178 184 187 188 193 199 204 211 220 224
238 236 235 235 236 237 237 236 236 237 240 242 243 245 247 250 253 259 270 274 275 276 272 266 267 267 263 266 269 266 263 267 272 275 281 289 295 298 299 299 292 279 267 261 259 260 263 268 273 278 280 283 297 311 304 275 258 91 80 76 83 94 113 135 156 174 184 190 190 188 188 194 208 217
241 238 236 236 236 237 239 240 240 240 241 242 243 242 243 246 248 251 260 269 271 271 268 262 257 256 259 261 264 269 270 272 277 278 281 286 290 291 295 300 297 286 274 265 259 257 256 259 263 266 268 267 276 303 315 280 259 218 124 84 76 80 109 122 124 144 168 184 190 190 187 184 191 204
242 240 239 237 236 236 237 238 241 241 240 242 243 244 244 245 248 249 252 260 265 265 264 263 258 255 262 268 270 274 276 278 282 285 288 290 289 288 292 297 297 291 283 274 265 259 254 253 257 259 259 256 257 276 298 278 260 239 214 138 90 84 96 133 121 119 141 162 178 189 191 187 189 195
240 238 238 238 237 236 235 236 238 240 241 243 243 244 245 244 246 247 246 251 259 262 264 266 266 266 266 268 271 275 279 284 289 294 297 295 293 292 292 293 296 296 289 281 272 264 256 250 250 252 253 251 245 248 268 275 268 258 251 244 208 124 100 131 142 117 119 135 152 168 177 184 191 195
243 239 237 238 238 237 237 237 238 239 239 240 239 239 242 244 245 244 242 246 254 260 263 266 270 271 267 264 265 269 275 283 289 293 293 294 297 298 295 293 296 299 294 286 278 270 260 252 248 247 248 249 242 234 249 260 261 266 266 268 252 226 167 153 145 122 115 121 133 144 151 165 183 193
247 243 239 238 238 237 238 239 239 239 239 238 237 235 238 244 245 243 241 242 249 255 259 263 266 270 271 271 270 268 270 275 281 285 287 292 297 299 299 297 297 301 300 292 284 276 269 259 252 247 244 245 241 229 237 248 234 239 251 242 242 242 221 195 168 144 142 136 126 134 141 146 164 176
248 245 241 239 239 239 240 242 241 241 240 238 237 236 235 238 243 243 240 241 245 250 255 259 262 267 271 273 274 273 276 279 281 283 285 289 293 296 302 302 300 301 300 294 288 281 275 265 255 250 243 240 238 228 228 238 227 215 227 227 226 236 235 219 202 187 180 170 151 154 161 146 150 160
249 247 245 243 241 240 240 242 242 240 239 235 235 235 233 234 239 242 243 244 245 247 252 257 261 265 269 273 279 284 289 291 290 288 288 290 294 297 303 308 308 306 302 296 291 282 276 268 258 252 245 238 235 228 225 230 226 213 211 215 220 225 231 231 224 216 204 193 187 187 190 186 180 174
248 247 247 246 243 238 237 239 239 238 238 236 235 235 234 234 236 240 243 245 247 249 253 259 264 268 272 276 283 289 294 296 296 298 299 298 298 300 302 305 308 306 300 297 296 291 286 279 267 259 252 244 237 229 225 225 224 218 211 208 210 217 225 229 225 227 223 207 201 202 203 205 209 208
247 246 246 244 243 240 237 237 237 237 239 241 241 240 237 235 235 239 241 242 244 249 253 259 264 269 273 277 283 290 293 289 289 297 304 308 308 307 308 307 300 293 294 300 306 303 296 291 281 269 259 252 244 235 228 226 225 222 220 215 209 207 211 217 216 213 224 226 215 209 207 207 207 207
246 245 244 242 241 242 241 239 237 237 238 241 244 244 242 239 237 238 241 242 244 247 251 256 261 266 270 274 279 283 280 275 282 294 304 306 306 306 306 300 292 292 302 309 309 306 302 297 291 282 269 258 251 243 234 229 228 227 226 225 219 210 201 202 212 214 210 216 223 218 211 209 210 207
244 242 242 241 240 240 241 240 237 235 234 235 239 241 241 241 239 239 240 242 244 246 250 254 257 261 267 271 275 276 269 265 273 280 278 275 279 287 286 282 288 307 319 315 302 301 305 296 286 279 272 262 254 249 241 233 230 229 229 229 226 222 211 199 203 211 210 206 209 214 213 208 211 214
243 241 240 240 239 237 237 237 234 230 226 227 230 235 238 240 240 241 241 241 241 243 247 253 257 260 265 268 270 272 270 267 269 273 271 266 265 272 277 279 292 316 310 302 292 282 281 284 283 278 272 267 258 252 247 240 234 229 229 232 229 227 225 215 205 203 204 207 207 209 216 214 208 210
242 240 239 237 236 233 231 230 227 223 221 223 228 233 238 242 243 244 245 246 246 245 247 252 254 257 263 268 268 268 264 257 263 275 283 282 273 270 277 279 269 246 280 287 284 281 279 278 281 281 277 273 266 257 251 246 240 233 229 230 232 230 228 226 222 213 205 206 208 210 216 218 214 209
242 239 237 235 233 230 228 225 221 219 219 222 228 235 241 246 249 249 248 249 248 248 251 253 254 256 261 268 269 263 247 231 244 265 280 294 290 278 278 269 234 217 270 284 285 292 292 271 272 278 279 277 272 263 254 247 244 239 233 230 231 232 231 228 229 227 219 212 209 210 213 217 218 215
241 238 235 232 230 228 225 222 219 218 220 223 227 235 242 247 251 253 251 252 252 250 250 251 255 256 259 264 262 242 231 243 259 269 278 289 286 273 268 263 243 235 265 282 293 301 300 280 275 277 277 276 276 273 263 252 248 245 238 232 229 230 233 232 231 230 228 223 217 213 212 214 217 216
240 238 234 230 228 226 222 219 217 216 219 223 225 230 236 240 243 242 239 242 249 252 253 252 252 250 247 253 258 255 261 270 278 285 288 289 285 276 271 273 270 259 260 283 300 309 320 309 283 276 276 272 274 282 275 259 253 252 246 238 231 228 229 233 234 232 229 228 225 221 216 214 215 216
240 238 234 229 227 226 221 217 218 218 221 225 227 229 232 236 239 239 235 234 239 247 255 262 264 255 246 251 256 254 257 261 267 276 280 280 279 277 275 279 279 252 212 273 306 314 329 321 295 288 283 268 261 270 275 263 253 253 250 243 236 230 226 228 232 234 233 230 228 227 224 220 218 217
240 236 232 229 226 225 221 217 217 221 225 229 230 230 232 234 237 240 241 240 243 248 255 267 274 269 254 255 257 252 254 261 267 274 277 278 281 284 283 279 263 156 139 138 324 330 335 313 300 300 287 270 262 260 267 269 263 258 256 250 243 236 230 227 229 233 236 235 232 229 229 227 224 222
244 236 230 227 225 224 221 217 217 221 228 231 229 230 232 231 232 236 237 236 241 245 247 255 267 269 264 270 277 262 254 257 264 271 279 288 298 301 297 279 232 171 141 138 147 344 358 335 301 299 291 276 269 263 262 266 266 265 265 260 253 247 237 229 226 228 232 236 236 232 229 229 228 227
246 240 231 226 224 223 221 219 217 219 226 229 227 226 228 229 229 231 229 224 224 228 233 240 246 250 252 257 270 270 259 251 252 259 269 281 288 292 292 278 251 214 162 135 135 313 352 354 332 320 312 294 281 275 271 267 260 258 261 260 259 256 245 231 223 222 223 228 233 235 232 229 227 227
243 241 234 226 223 222 221 221 218 213 218 227 229 225 226 229 230 229 224 220 220 220 225 232 237 242 245 247 253 258 255 248 246 254 267 275 275 277 277 269 268 241 173 134 106 164 317 346 352 346 333 318 311 305 288 276 264 251 251 256 255 254 249 235 224 219 218 219 223 229 233 232 228 226
233 234 231 227 223 221 220 220 217 211 215 226 229 225 226 230 231 226 219 216 218 220 223 230 237 244 248 245 243 244 244 243 239 242 254 263 264 266 264 253 259 252 193 155 138 276 299 325 338 347 340 326 324 328 315 294 273 252 250 256 252 249 250 239 225 219 217 216 217 220 226 230 231 229
228 228 227 224 220 218 218 218 216 211 214 224 229 228 228 226 211 203 205 205 211 218 222 227 235 240 243 243 241 239 239 242 240 235 240 247 252 256 252 241 249 254 204 162 196 282 302 316 321 333 337 329 332 339 338 322 289 251 245 251 250 249 254 247 230 220 217 217 216 216 218 222 228 231
227 229 230 227 222 218 217 217 216 213 212 220 228 229 218 198 188 197 203 204 212 220 224 232 237 236 237 239 240 240 240 243 246 240 238 242 247 252 250 241 247 250 210 178 231 269 288 298 305 318 324 325 333 344 349 344 326 262 240 246 253 254 256 254 241 227 221 219 218 216 215 216 219 225
227 227 228 229 227 222 220 217 216 214 211 216 225 227 212 198 202 212 208 205 215 226 232 240 239 237 240 242 240 238 238 241 244 244 244 247 251 254 251 244 246 248 236 234 250 262 277 287 295 306 314 318 327 340 349 351 347 317 244 241 250 259 261 258 253 243 230 224 221 220 219 216 215 218
226 223 222 223 223 223 223 220 218 216 213 214 220 223 219 213 211 214 214 220 232 238 237 241 246 251 258 260 255 246 240 239 240 241 244 250 253 256 255 251 249 246 242 243 250 258 270 277 282 293 306 312 315 322 334 344 350 348 266 234 247 271 278 258 256 257 246 231 221 219 221 221 219 218
227 224 222 222 222 222 223 222 220 219 216 215 217 220 222 220 215 215 221 226 229 228 225 229 240 251 258 266 274 277 270 256 247 243 244 248 252 254 253 252 250 246 241 242 246 251 262 271 277 285 294 299 300 306 320 337 352 357 339 221 248 271 261 245 255 260 247 230 216 213 219 221 221 221
232 226 221 221 222 221 220 220 221 221 217 214 215 217 218 216 214 217 222 219 218 220 224 232 238 243 251 263 268 270 271 267 256 250 249 250 253 254 251 248 247 244 240 241 244 249 259 270 278 280 279 281 287 297 310 321 332 344 357 52 47 301 241 233 244 249 242 233 217 213 218 219 219 221
233 230 223 218 217 216 217 218 219 220 218 215 215 215 213 213 214 217 220 220 222 228 235 243 245 236 232 247 256 251 247 250 252 252 252 251 252 253 253 253 253 249 243 242 245 252 261 269 273 271 270 274 279 289 300 300 294 308 337 3 8 10 342 222 221 220 227 239 236 226 224 222 221 223
221 227 228 224 216 211 214 217 216 217 218 216 215 215 214 213 214 217 219 223 229 235 241 250 255 242 222 222 232 236 237 242 246 248 248 249 251 249 247 250 254 255 253 249 247 249 255 261 264 264 264 269 275 280 285 284 280 284 298 301 301 323 347 321 203 202 209 218 225 236 241 235 231 230
209 213 221 225 217 208 209 216 218 217 217 216 215 215 214 213 213 217 221 226 233 241 246 250 256 252 233 222 220 222 226 231 237 241 242 243 245 245 243 245 249 254 259 262 261 256 251 249 253 257 259 262 266 269 269 270 271 273 274 267 256 268 315 335 236 214 209 207 212 218 225 231 238 240
210 207 209 218 218 208 206 213 218 216 215 216 215 214 214 213 215 219 223 229 238 247 251 251 253 252 244 232 225 223 222 222 224 231 236 238 239 239 239 241 246 251 256 262 267 267 263 253 248 250 252 255 258 261 262 263 263 263 264 261 237 221 236 270 261 250 243 222 216 219 219 222 228 233
212 209 205 208 215 211 208 211 216 215 215 215 213 211 210 213 219 224 229 235 245 251 251 252 252 249 248 246 238 231 228 227 226 228 231 235 239 241 241 241 243 245 245 248 257 267 272 268 260 255 250 248 251 254 255 256 254 248 246 248 240 222 218 233 252 253 246 226 218 223 227 230 226 221
212 211 208 205 208 211 210 210 212 214 214 210 208 209 211 215 221 228 236 245 251 253 252 252 251 247 246 249 248 243 240 237 235 233 233 233 234 240 246 247 245 243 244 248 256 265 267 263 262 262 258 251 249 250 249 251 252 248 242 243 243 235 224 219 232 248 248 234 226 229 242 264 255 218
209 210 210 208 204 205 211 212 211 212 213 210 208 210 213 216 222 231 241 248 250 251 252 250 243 238 240 243 246 248 247 247 246 243 238 234 231 233 238 245 248 249 251 252 256 260 258 254 254 258 258 254 251 251 250 249 250 249 245 243 243 239 230 221 228 241 242 234 231 236 249 270 265 225
208 205 209 211 205 201 208 213 212 211 212 211 211 212 214 220 228 235 239 242 243 246 249 243 233 231 236 240 244 247 249 250 249 245 240 236 231 228 230 237 243 244 246 248 250 251 251 250 252 254 253 250 251 254 255 251 248 246 246 247 245 240 229 224 229 239 244 240 232 231 233 237 241 232
211 205 205 206 205 204 209 211 208 208 209 209 209 212 218 225 231 234 233 235 242 246 244 237 232 234 239 243 244 246 248 249 248 243 237 233 229 228 230 236 239 240 241 244 248 249 246 245 247 250 250 250 255 263 270 264 255 251 250 251 248 240 230 226 228 235 244 247 236 227 225 224 228 235
220 210 205 201 200 206 211 207 199 202 208 211 212 216 223 227 228 228 232 239 245 245 240 236 235 237 242 246 248 249 249 249 249 246 240 234 231 229 229 230 232 235 238 242 246 247 245 243 244 248 254 260 267 273 276 268 258 253 249 243 238 230 224 224 226 232 241 246 237 226 223 221 224 231
225 218 208 202 197 199 205 205 197 196 201 208 213 218 223 225 226 231 239 244 244 241 240 241 241 242 244 248 249 248 249 251 253 249 243 239 237 235 234 232 229 231 236 240 243 246 247 248 251 254 259 264 266 262 256 250 247 247 245 237 228 222 218 218 221 229 237 239 231 223 222 222 226 231
226 226 212 204 200 196 196 202 206 205 204 207 212 216 222 225 229 236 241 240 238 238 241 243 242 243 245 247 246 245 246 248 249 244 240 239 239 238 239 236 232 234 239 240 240 244 246 247 250 253 253 252 250 249 248 245 241 242 243 236 227 219 215 213 212 218 230 235 228 221 219 219 222 226
219 221 211 204 204 204 201 204 211 215 216 218 220 223 228 231 234 237 237 233 232 236 241 242 241 240 241 242 241 240 240 240 238 235 233 233 235 238 239 234 231 236 241 240 241 243 241 238 241 245 243 241 241 244 247 245 239 237 235 231 226 221 219 216 211 213 224 233 225 216 222 226 229 231
202 206 203 198 200 205 208 211 215 217 220 223 225 227 230 231 231 230 227 225 230 238 242 241 239 237 236 237 236 235 234 234 232 231 232 234 236 238 240 237 233 235 239 244 249 245 235 231 236 238 235 235 237 240 241 238 233 231 230 229 226 224 224 222 216 216 224 229 222 217 228 235 237 239
190 194 195 192 193 198 203 208 210 212 215 217 217 219 221 220 219 218 218 223 232 241 241 239 236 233 233 233 232 231 232 233 234 233 233 234 236 239 242 240 234 229 230 241 254 247 232 230 234 234 236 240 239 236 233 229 225 227 230 229 225 223 225 226 220 217 221 223 220 223 233 236 235 235